Wind_Speed
73 71 69 68 65 64 62 62 62 61 59 61 60 59 59 58 57 57 59 61 60 58 61 61 61 63 64 66 70 70 72 75 75 77 78 78 77 76 79 83 88 91 102 99 97 100 108 109 111 116 117 117 124 121
75 75 76 74 72 71 71 70 70 70 70 70 68 68 66 66 65 64 67 68 68 66 65 68 69 68 69 69 73 72 73 75 75 77 79 82 84 86 90 89 90 95 111 107 108 109 116 120 122 124 127 126 125 128
80 80 77 77 76 75 73 72 74 74 73 73 74 73 70 68 68 69 70 70 69 68 66 66 70 73 75 79 85 82 82 85 85 88 85 86 87 87 88 87 95 107 120 113 112 115 120 123 127 129 131 132 131 132
86 83 83 83 81 80 77 74 76 77 76 78 72 72 72 75 75 77 77 77 77 75 69 72 75 78 82 84 90 91 91 93 94 95 96 96 97 98 98 100 108 119 122 120 120 123 125 128 132 132 133 135 135 133
86 84 86 84 82 76 72 74 75 77 79 81 79 78 80 81 82 84 85 87 87 87 80 76 80 85 89 94 97 98 99 100 101 95 99 99 108 115 112 112 119 128 129 130 128 133 134 130 134 137 136 137 139 138
91 90 88 87 86 87 86 87 88 87 87 88 89 89 92 89 88 92 94 94 94 95 92 85 84 86 94 101 102 107 111 107 103 102 107 110 116 122 119 120 127 134 133 137 135 136 136 134 135 140 137 137 135 136
101 100 98 98 100 99 100 101 101 101 101 99 97 97 98 98 100 101 100 99 102 101 99 98 92 97 105 111 114 114 114 116 116 116 115 119 123 124 127 130 131 141 146 144 143 140 141 144 141 144 142 135 124 115
112 111 110 109 109 109 111 112 112 112 112 109 107 106 106 107 106 107 107 108 108 111 111 108 109 112 114 116 115 117 122 125 123 125 124 127 127 131 137 138 138 148 148 146 147 149 145 140 138 137 126 112 101 100
117 114 116 120 119 118 118 119 119 118 117 116 115 112 115 116 114 117 117 116 117 117 118 117 120 120 121 123 123 124 126 130 132 132 133 135 135 137 148 145 146 151 151 149 151 146 142 132 118 109 106 106 103 100
126 123 125 128 128 128 128 127 126 125 124 124 124 123 123 126 128 124 121 122 123 125 122 125 132 132 132 131 130 135 136 137 139 139 143 140 139 146 154 149 151 152 147 139 128 122 116 110 105 102 101 100 97 98
135 135 135 137 137 137 137 138 138 138 134 133 132 131 132 133 131 133 129 129 129 130 132 134 138 138 139 140 142 146 149 153 154 150 148 142 142 148 146 144 132 118 114 114 110 106 103 100 97 94 91 93 91 88
143 143 140 141 142 142 142 143 143 139 139 142 144 142 142 140 138 138 134 137 137 137 142 146 147 149 150 153 157 156 157 155 139 136 128 123 127 131 121 114 114 116 115 110 106 100 98 97 94 90 87 85 87 85
148 150 151 149 150 149 151 150 150 149 148 149 148 147 144 147 147 141 141 148 155 158 161 164 162 157 158 159 159 157 141 135 131 123 120 120 122 121 120 118 113 110 110 105 101 98 96 95 95 92 84 82 78 79
159 158 157 156 157 158 154 153 156 155 154 155 155 155 152 151 154 158 153 157 162 163 163 161 156 149 146 143 130 120 116 118 118 115 117 115 114 109 106 109 109 108 107 103 99 98 96 94 90 88 85 78 73 68
162 164 165 166 166 166 166 164 167 162 163 170 172 164 162 153 152 152 152 155 157 150 144 141 139 135 132 133 130 123 120 117 115 118 114 110 108 106 106 107 106 102 100 98 97 94 90 87 83 78 77 71 69 64
140 142 147 149 153 157 162 164 162 162 165 164 157 157 152 150 148 140 138 140 139 137 134 136 132 123 120 120 117 113 119 119 119 115 107 104 107 107 107 104 103 101 97 94 91 88 85 81 75 69 68 66 62 61
119 124 128 129 135 141 141 143 149 151 142 127 126 131 133 134 137 138 136 134 138 134 132 133 126 124 120 114 109 110 114 108 104 103 103 102 102 104 99 96 96 96 92 88 83 78 75 73 70 67 61 63 57 58
97 101 107 112 119 124 127 128 130 126 118 113 113 116 118 120 122 120 122 122 123 123 123 118 114 110 104 106 109 104 102 100 99 100 98 96 98 97 95 92 90 83 79 78 75 71 70 67 66 64 61 59 58 56
81 84 90 94 99 99 100 101 103 101 97 102 106 110 114 113 112 112 114 110 109 108 106 102 99 99 105 104 101 95 93 95 93 91 87 89 90 86 84 84 81 79 78 76 73 69 66 63 58 56 55 52 51 50
68 74 79 81 84 85 85 85 87 88 88 90 91 97 101 98 100 101 102 101 101 98 95 95 95 97 98 94 93 88 86 87 88 85 83 87 88 85 83 79 76 74 71 68 64 60 57 55 52 50 49 46 45 44
67 68 70 74 77 79 78 79 79 80 77 70 75 79 79 81 83 85 86 86 83 83 85 87 86 85 87 82 83 84 85 86 86 86 83 80 81 79 76 73 69 67 63 60 58 57 52 49 45 42 41 39 38 36
57 59 62 67 70 72 73 77 79 79 76 74 75 75 73 74 75 76 77 75 76 78 76 78 80 80 81 80 79 78 76 74 73 73 68 65 65 67 67 64 61 59 56 53 52 50 46 41 37 34 33 31 31 32
49 51 54 57 59 60 59 68 69 69 66 66 68 68 69 70 72 74 73 74 75 76 73 72 70 68 67 65 63 63 63 64 65 64 61 60 59 58 58 56 52 51 53 46 45 44 40 36 32 29 28 27 28 29
45 45 45 49 51 50 53 55 55 56 57 57 56 55 57 59 60 61 61 65 66 64 62 60 61 61 60 59 59 59 60 60 60 58 56 57 57 52 51 50 45 44 47 42 39 37 35 32 28 26 24 24 26 27
44 44 43 45 43 45 48 49 49 49 51 52 51 51 52 53 51 51 57 63 60 58 56 58 59 58 56 56 54 55 55 55 55 53 49 49 50 49 46 41 38 39 41 38 35 33 31 30 27 24 23 23 25 25
45 45 43 43 43 41 41 44 45 46 46 46 47 48 50 49 48 50 56 56 54 53 53 53 52 51 52 52 51 51 51 50 49 48 45 44 46 46 43 38 34 32 37 37 32 30 30 28 26 24 23 22 23 25
46 45 46 44 42 42 42 43 43 44 44 44 45 46 47 46 48 50 51 50 49 49 50 50 49 49 48 48 48 48 47 46 45 43 41 41 43 43 42 39 34 32 32 34 34 30 28 28 26 25 24 22 22 24
45 45 45 44 44 44 44 44 44 44 43 43 43 43 42 43 44 45 46 47 48 47 46 46 46 46 46 46 46 44 44 44 43 41 40 38 38 39 39 38 37 33 30 31 32 31 27 25 26 25 24 24 24 25
48 47 46 45 44 45 45 44 45 44 44 44 45 44 43 43 41 41 41 40 40 41 41 41 41 42 42 43 44 43 41 41 41 41 39 37 34 37 39 37 35 35 33 29 29 30 29 27 26 26 25 25 26 28
48 48 47 47 45 45 44 44 46 46 46 45 44 44 43 43 43 42 40 38 36 36 37 37 38 39 40 41 43 44 42 41 41 40 38 37 37 36 38 39 37 33 31 30 29 29 29 29 29 27 26 27 29 31
49 49 48 48 48 48 46 46 45 45 45 45 45 44 44 43 43 42 41 40 39 39 39 39 38 37 37 37 37 37 39 39 38 38 39 38 37 36 36 36 37 36 35 32 29 29 31 32 31 30 29 29 31 32
50 49 48 48 49 49 48 46 45 46 46 46 45 44 44 43 42 43 42 39 38 38 39 40 40 39 38 37 35 33 32 33 35 36 37 37 37 37 37 36 35 33 33 35 35 33 31 31 32 32 32 32 33 33
51 50 48 48 49 49 49 48 47 47 47 46 46 45 44 42 40 41 41 41 40 40 41 41 41 41 39 37 36 35 34 32 31 31 32 33 34 33 33 32 33 33 33 33 35 36 35 33 32 32 33 34 35 35
Wind_Direction
243 243 245 248 250 252 255 259 261 261 262 265 267 269 272 275 276 277 279 281 283 285 288 287 288 290 293 294 292 290 290 291 294 296 299 301 305 304 303 305 304 305 305 307 312 313 309 315 318 317 319 320 319 320
246 246 247 249 252 256 258 261 264 267 268 269 270 273 276 279 281 283 284 284 285 288 286 288 287 286 286 289 294 296 296 296 300 302 304 305 303 304 303 302 302 304 302 306 311 316 314 317 317 317 319 317 316 317
249 250 251 252 254 256 258 260 263 266 267 269 273 276 278 281 281 281 282 283 285 287 288 289 289 290 291 293 295 294 293 297 298 298 301 304 304 302 303 299 302 302 299 307 316 310 311 314 315 315 314 315 316 317
247 249 252 253 256 259 262 264 266 268 271 271 272 273 276 282 281 285 284 282 285 291 293 292 294 293 291 292 289 289 289 292 295 295 299 300 301 306 307 310 309 300 302 313 314 311 311 313 312 311 312 314 314 313
254 259 260 257 258 259 262 267 271 273 274 272 272 275 280 282 283 284 288 287 287 289 292 293 294 293 291 289 293 294 295 296 295 296 299 304 305 304 309 313 307 300 311 311 311 309 311 309 310 310 312 310 310 311
260 263 261 260 264 264 264 267 269 271 272 273 271 273 278 280 283 285 286 285 285 289 289 290 293 294 297 296 291 293 295 296 297 303 301 301 303 304 310 309 300 305 307 308 308 307 307 306 308 309 308 308 308 309
261 261 259 262 264 266 268 270 270 274 274 276 274 274 275 278 281 283 283 286 284 286 291 291 295 296 294 292 295 293 296 300 301 302 303 305 303 306 307 303 302 304 305 305 306 305 305 307 306 306 307 308 308 308
258 259 260 261 263 266 269 270 271 274 278 277 278 277 274 278 279 281 284 286 286 287 293 295 296 292 290 290 291 293 297 297 298 301 301 301 302 301 301 298 301 303 303 303 302 302 303 302 303 305 306 305 305 305
260 260 262 265 267 269 270 272 274 275 276 276 276 277 278 279 278 280 281 285 288 290 293 294 289 287 289 289 292 293 294 295 296 296 296 297 301 301 297 297 299 299 300 299 299 299 300 302 302 302 302 301 301 300
259 259 263 266 266 270 270 269 270 273 274 274 273 274 276 277 280 280 281 283 287 288 290 290 288 289 291 290 289 291 291 292 294 295 295 295 297 294 291 293 295 296 297 297 297 297 300 300 299 298 297 296 297 297
262 264 264 265 266 267 270 270 272 273 273 272 272 273 277 278 278 279 281 283 285 285 285 284 285 285 287 288 289 292 292 294 295 294 295 297 297 290 291 292 295 294 295 296 296 297 298 295 293 293 293 295 296 296
263 263 264 265 265 267 269 270 270 271 273 275 276 277 277 278 278 281 283 283 282 282 283 285 285 285 286 287 288 290 291 294 295 295 295 296 294 293 295 294 294 297 296 297 298 297 296 296 294 293 293 295 298 298
260 262 263 261 263 265 267 269 269 270 272 273 272 274 276 278 279 282 283 282 282 284 284 286 288 289 289 289 290 291 292 293 293 293 293 293 292 293 292 294 294 295 295 297 296 296 295 293 293 294 295 296 294 294
261 262 262 262 264 266 265 266 268 270 270 270 273 274 276 279 281 282 282 282 283 285 285 286 286 286 288 289 290 291 292 292 292 293 292 291 290 292 294 295 295 293 292 292 293 292 291 291 294 296 296 296 296 295
264 264 264 264 265 265 265 266 270 270 271 273 276 278 279 280 281 280 281 282 283 284 285 286 287 288 288 288 289 290 291 292 295 293 290 290 292 294 294 292 290 292 292 292 291 291 293 295 295 295 296 295 294 295
263 264 265 264 265 266 267 270 272 273 273 274 277 278 278 279 278 280 281 280 280 281 283 284 285 287 288 287 289 292 292 294 290 290 292 293 293 292 292 292 293 293 292 291 293 296 296 295 296 297 295 294 293 291
263 263 264 265 266 267 268 270 271 270 271 274 277 277 279 278 277 277 278 279 280 281 282 283 285 285 284 287 291 291 288 287 289 290 290 291 293 292 292 292 291 290 293 296 297 298 298 297 296 295 294 292 290 288
263 263 264 265 266 266 267 268 270 272 274 276 276 278 277 278 277 277 278 278 280 281 281 282 283 285 287 287 284 286 288 290 292 292 293 294 292 291 292 291 291 295 295 297 297 297 295 295 293 292 290 287 283 280
267 267 267 267 266 268 270 271 273 275 276 276 276 275 274 275 276 276 276 277 277 278 279 282 284 286 284 285 286 288 291 291 291 292 294 293 291 293 293 293 295 297 298 296 297 297 296 294 291 290 287 285 281 277
269 267 267 268 270 271 272 273 275 277 277 274 274 272 273 275 274 275 276 277 278 280 283 284 284 283 283 285 288 289 289 289 288 289 291 291 291 292 293 295 296 295 296 296 297 295 294 292 291 289 287 284 280 276
269 271 270 270 271 272 273 274 275 275 275 277 274 274 275 275 276 277 277 278 279 281 281 281 282 283 283 286 287 289 288 289 292 292 290 290 292 292 293 294 295 295 296 296 295 294 293 291 290 286 284 280 276 271
275 274 273 272 272 273 275 273 272 271 273 274 275 276 277 278 279 280 280 282 282 281 281 282 282 284 285 286 287 288 289 289 287 287 290 290 289 289 290 291 293 295 295 295 294 293 292 288 285 283 279 276 271 263
279 277 276 276 276 276 273 271 275 276 276 275 275 275 276 276 276 277 278 278 278 279 281 281 284 285 285 286 286 286 285 284 285 286 288 288 287 288 288 291 294 295 293 292 292 292 292 289 286 283 277 272 265 255
281 281 282 281 281 280 278 278 276 275 275 275 274 274 274 274 274 276 279 278 279 281 283 284 282 282 284 285 285 284 284 285 285 287 287 286 287 288 289 291 292 292 291 293 290 290 289 287 285 281 277 271 263 252
282 281 281 282 283 284 284 283 282 280 279 279 279 278 276 276 278 279 278 278 279 282 285 285 285 285 284 283 284 283 283 283 282 282 283 286 287 286 286 288 291 290 288 288 288 288 286 286 284 280 274 268 260 252
284 285 283 283 283 283 285 287 287 287 285 284 282 280 279 279 280 277 276 280 284 283 282 284 285 286 288 287 286 284 283 284 285 285 286 285 285 287 289 290 288 285 286 287 286 284 283 281 279 277 271 265 258 253
285 284 285 286 286 285 286 285 286 288 289 290 289 288 286 284 282 281 284 285 285 286 286 286 287 287 286 285 285 285 285 285 284 284 285 285 285 285 286 286 286 285 283 283 285 283 280 277 274 270 266 258 252 250
288 287 286 285 285 285 285 286 286 286 285 285 285 286 286 285 284 283 283 283 283 284 284 285 286 284 283 281 280 281 282 284 285 285 284 282 282 283 284 286 286 284 279 278 279 279 276 272 271 269 263 257 250 247
290 289 288 285 284 285 285 285 284 284 283 284 286 286 286 288 289 290 289 288 288 288 287 285 283 282 281 281 281 282 282 283 283 284 285 284 283 284 284 282 280 281 281 275 272 273 275 273 267 265 263 257 255 252
289 289 288 287 286 285 284 284 284 285 285 285 285 286 286 285 285 286 287 288 290 291 291 290 290 288 287 287 287 287 287 287 287 287 286 284 283 281 280 282 282 280 277 275 273 272 271 270 270 267 262 257 255 254
285 285 285 285 285 285 285 285 284 283 282 282 282 283 284 284 284 285 286 287 288 288 287 287 287 287 287 287 286 286 287 286 285 283 282 280 278 276 274 275 276 278 279 277 274 271 269 268 266 264 262 258 255 255
284 283 283 283 283 283 284 284 284 283 283 283 282 281 279 279 280 282 282 283 282 280 281 282 282 282 283 284 284 284 284 285 286 286 285 283 280 276 273 271 269 269 271 273 275 272 267 264 263 262 261 259 257 257
285 284 284 282 282 282 282 283 282 282 282 281 281 280 280 280 281 280 281 281 280 279 279 279 279 280 281 281 280 279 280 281 281 282 283 284 284 284 281 278 274 271 269 268 268 269 269 266 262 258 258 258 257 256
Height
10630 10633 10636 10639 10643 10645 10647 10649 10651 10653 10654 10655 10656 10657 10657 10658 10657 10658 10656 10654 10655 10658 10657 10651 10647 10641 10637 10631 10626 10624 10616 10610 10606 10599 10596 10591 10590 10582 10574 10566 10552 10537 10513 10524 10525 10517 10497 10482 10471 10453 10444 10440 10410 10411
10615 10618 10622 10626 10629 10632 10634 10636 10637 10638 10640 10640 10641 10643 10643 10643 10642 10642 10640 10638 10638 10641 10643 10637 10632 10626 10621 10614 10607 10604 10594 10588 10586 10580 10577 10575 10569 10564 10554 10551 10534 10522 10489 10500 10498 10492 10466 10451 10441 10425 10410 10407 10397 10378
10599 10603 10606 10609 10613 10616 10619 10620 10620 10622 10623 10624 10625 10625 10626 10627 10627 10626 10624 10622 10623 10624 10626 10623 10616 10610 10604 10595 10584 10581 10575 10567 10566 10558 10558 10556 10548 10539 10532 10529 10515 10499 10462 10481 10478 10465 10445 10437 10418 10403 10389 10378 10367 10348
10583 10587 10589 10593 10596 10599 10601 10603 10604 10605 10606 10606 10607 10607 10608 10609 10608 10607 10606 10604 10602 10604 10609 10606 10597 10591 10584 10577 10563 10558 10555 10550 10548 10540 10535 10533 10523 10513 10512 10501 10490 10454 10445 10456 10450 10433 10428 10410 10395 10383 10373 10352 10340 10331
10564 10568 10571 10574 10577 10580 10583 10585 10586 10587 10588 10588 10588 10588 10589 10589 10588 10585 10584 10581 10579 10578 10587 10592 10583 10574 10566 10552 10538 10530 10529 10526 10525 10523 10516 10508 10495 10476 10482 10479 10460 10419 10425 10423 10425 10403 10396 10392 10373 10354 10347 10332 10317 10304
10546 10548 10550 10553 10555 10558 10561 10564 10565 10567 10568 10567 10567 10566 10566 10566 10565 10563 10563 10560 10556 10556 10561 10569 10569 10558 10540 10522 10516 10507 10501 10505 10499 10499 10496 10485 10468 10448 10455 10456 10418 10402 10404 10395 10393 10380 10368 10357 10349 10333 10324 10310 10296 10278
10520 10525 10529 10531 10533 10535 10537 10539 10540 10541 10544 10544 10545 10545 10543 10543 10542 10539 10538 10538 10532 10530 10532 10539 10542 10537 10514 10499 10490 10482 10474 10471 10467 10464 10464 10454 10440 10431 10428 10418 10408 10378 10371 10367 10357 10351 10345 10330 10325 10305 10293 10283 10270 10254
10495 10497 10501 10505 10508 10510 10512 10513 10514 10514 10515 10516 10516 10515 10515 10514 10512 10509 10505 10507 10506 10502 10502 10504 10504 10494 10479 10470 10464 10456 10449 10440 10440 10436 10433 10424 10421 10410 10401 10381 10380 10358 10347 10341 10324 10312 10313 10311 10296 10284 10267 10256 10253 10235
10470 10473 10474 10476 10479 10480 10481 10482 10484 10485 10483 10485 10485 10485 10485 10484 10481 10481 10480 10479 10478 10477 10473 10474 10463 10451 10449 10438 10433 10430 10425 10418 10416 10415 10404 10393 10397 10388 10348 10354 10352 10329 10322 10318 10302 10285 10276 10275 10270 10256 10244 10234 10225 10215
10444 10446 10447 10448 10448 10449 10452 10453 10454 10457 10457 10453 10456 10458 10458 10454 10452 10452 10452 10453 10452 10449 10445 10437 10417 10414 10409 10405 10400 10397 10396 10391 10385 10392 10377 10377 10378 10349 10320 10323 10318 10305 10289 10280 10272 10260 10249 10241 10236 10234 10220 10207 10200 10191
10417 10419 10422 10423 10423 10424 10423 10423 10422 10425 10427 10424 10424 10426 10428 10425 10423 10423 10427 10432 10429 10424 10412 10401 10386 10382 10379 10374 10364 10358 10354 10350 10353 10355 10346 10347 10344 10303 10296 10291 10283 10272 10258 10249 10243 10236 10227 10215 10211 10207 10198 10183 10176 10171
10387 10389 10391 10391 10391 10391 10391 10390 10390 10394 10393 10392 10391 10391 10393 10394 10396 10398 10407 10404 10395 10381 10370 10362 10357 10350 10346 10339 10330 10325 10318 10316 10313 10306 10310 10312 10287 10263 10267 10257 10247 10238 10223 10215 10207 10204 10195 10184 10177 10174 10170 10164 10156 10149
10354 10358 10360 10360 10359 10360 10358 10356 10355 10360 10360 10359 10358 10360 10364 10358 10362 10374 10372 10363 10350 10334 10326 10316 10314 10310 10308 10297 10287 10283 10280 10279 10275 10275 10270 10265 10242 10234 10229 10226 10214 10204 10194 10188 10178 10170 10164 10155 10146 10142 10146 10137 10135 10126
10320 10321 10322 10323 10323 10322 10322 10318 10315 10323 10319 10318 10320 10326 10328 10334 10346 10336 10327 10317 10306 10293 10282 10275 10272 10269 10271 10259 10253 10250 10244 10238 10237 10236 10228 10221 10207 10203 10200 10191 10179 10174 10164 10155 10151 10143 10133 10126 10126 10119 10111 10109 10105 10103
10280 10282 10285 10285 10283 10283 10283 10278 10275 10284 10281 10280 10274 10293 10314 10318 10304 10288 10281 10273 10261 10253 10243 10239 10234 10232 10228 10221 10222 10221 10209 10205 10208 10195 10183 10181 10177 10172 10169 10156 10143 10138 10132 10124 10115 10109 10107 10103 10099 10095 10084 10082 10080 10080
10246 10248 10243 10239 10238 10236 10236 10235 10237 10243 10239 10238 10242 10267 10279 10271 10266 10252 10237 10228 10221 10218 10213 10203 10198 10197 10194 10186 10189 10193 10179 10173 10160 10151 10153 10153 10144 10137 10127 10121 10116 10105 10097 10093 10090 10087 10082 10074 10071 10070 10063 10057 10057 10054
10212 10210 10200 10202 10201 10200 10195 10199 10198 10199 10199 10211 10224 10222 10223 10223 10219 10212 10205 10199 10181 10177 10173 10162 10166 10162 10158 10160 10165 10155 10139 10134 10134 10129 10123 10117 10112 10098 10096 10092 10083 10073 10071 10068 10065 10061 10056 10050 10047 10042 10042 10033 10035 10031
10177 10170 10170 10170 10168 10165 10164 10166 10165 10167 10176 10189 10185 10186 10171 10172 10172 10172 10165 10158 10147 10141 10131 10132 10131 10132 10133 10131 10118 10113 10110 10108 10103 10094 10091 10090 10076 10066 10061 10056 10051 10052 10048 10043 10039 10037 10030 10027 10022 10019 10016 10014 10011 10011
10146 10144 10141 10138 10135 10136 10138 10138 10135 10140 10153 10156 10154 10145 10129 10133 10130 10126 10118 10119 10120 10110 10107 10111 10106 10108 10099 10089 10087 10090 10086 10078 10072 10070 10067 10056 10041 10041 10037 10031 10030 10027 10023 10017 10014 10011 10006 10001 10000 9997 9993 9992 9991 9991
10124 10119 10116 10116 10112 10113 10113 10116 10113 10114 10119 10117 10116 10104 10092 10100 10097 10091 10088 10087 10084 10084 10085 10082 10079 10072 10066 10068 10061 10063 10060 10053 10045 10044 10043 10032 10019 10017 10012 10011 10010 10004 9999 9995 9992 9989 9986 9982 9981 9978 9975 9974 9974 9974
10100 10100 10099 10094 10091 10089 10090 10092 10091 10088 10084 10088 10078 10071 10074 10072 10068 10063 10058 10057 10061 10063 10058 10052 10051 10050 10042 10044 10040 10035 10032 10025 10020 10016 10016 10015 10000 9993 9989 9984 9985 9982 9981 9978 9973 9969 9969 9966 9964 9962 9960 9960 9960 9959
10082 10080 10075 10070 10069 10068 10069 10061 10057 10058 10060 10060 10055 10052 10053 10049 10045 10040 10036 10040 10037 10032 10032 10029 10026 10026 10022 10020 10018 10013 10009 10003 9997 9990 9991 9991 9984 9975 9969 9969 9968 9964 9962 9960 9956 9953 9951 9950 9949 9947 9946 9946 9946 9947
10066 10062 10057 10053 10051 10048 10048 10035 10036 10036 10038 10037 10034 10033 10031 10028 10024 10019 10020 10014 10011 10006 10009 10007 10006 10005 10001 9998 9995 9990 9985 9979 9975 9973 9973 9966 9963 9961 9956 9954 9954 9951 9943 9944 9942 9939 9937 9935 9934 9933 9933 9933 9934 9935
10049 10045 10041 10036 10032 10031 10024 10021 10019 10017 10015 10012 10013 10012 10009 10006 10005 10003 10000 9989 9987 9987 9987 9986 9983 9981 9979 9977 9974 9970 9965 9962 9958 9957 9954 9948 9944 9944 9942 9939 9940 9936 9928 9929 9928 9926 9923 9922 9922 9922 9922 9922 9922 9924
10034 10030 10027 10021 10020 10014 10008 10003 10001 9999 9996 9994 9994 9993 9991 9988 9988 9987 9977 9968 9971 9972 9971 9967 9964 9963 9961 9958 9956 9952 9947 9944 9941 9941 9939 9933 9928 9927 9927 9926 9925 9922 9916 9915 9914 9913 9912 9910 9911 9911 9911 9911 9912 9914
10018 10014 10011 10007 10003 10001 9996 9990 9985 9982 9979 9977 9976 9974 9971 9971 9971 9967 9957 9956 9957 9955 9952 9950 9947 9944 9941 9939 9937 9935 9933 9929 9927 9925 9924 9920 9915 9912 9911 9912 9912 9911 9905 9902 9903 9902 9901 9899 9900 9900 9901 9902 9903 9905
10001 9999 9994 9991 9988 9985 9982 9978 9974 9969 9965 9962 9959 9956 9953 9952 9950 9947 9944 9942 9940 9938 9935 9932 9930 9928 9927 9924 9920 9918 9916 9914 9913 9912 9910 9907 9903 9900 9899 9898 9899 9898 9895 9892 9890 9891 9891 9890 9890 9890 9892 9893 9893 9894
9986 9982 9979 9976 9973 9970 9967 9964 9960 9956 9953 9950 9947 9943 9941 9937 9935 9933 9930 9927 9924 9922 9920 9918 9916 9914 9911 9908 9906 9904 9901 9898 9897 9896 9896 9895 9891 9887 9885 9884 9884 9885 9885 9882 9880 9879 9880 9881 9880 9881 9882 9883 9883 9884
9969 9966 9963 9960 9958 9955 9952 9949 9945 9942 9939 9935 9932 9929 9926 9923 9921 9918 9916 9914 9911 9909 9907 9904 9902 9899 9896 9892 9890 9889 9888 9885 9883 9881 9880 9879 9880 9876 9873 9874 9873 9872 9871 9872 9870 9868 9868 9869 9870 9871 9872 9873 9873 9874
9953 9949 9946 9942 9940 9938 9937 9934 9930 9925 9922 9920 9918 9915 9912 9910 9908 9905 9902 9900 9898 9896 9893 9889 9886 9884 9881 9879 9876 9874 9873 9872 9870 9868 9867 9866 9865 9865 9863 9860 9859 9859 9859 9859 9859 9857 9857 9858 9859 9860 9862 9863 9863 9863
9937 9934 9930 9927 9923 9921 9919 9917 9914 9910 9907 9904 9902 9900 9897 9895 9892 9890 9888 9887 9886 9883 9880 9877 9875 9872 9870 9867 9865 9862 9859 9857 9856 9855 9853 9853 9852 9852 9850 9849 9847 9845 9845 9845 9846 9847 9847 9847 9848 9849 9850 9851 9851 9853
9920 9918 9915 9911 9907 9904 9901 9899 9896 9893 9889 9887 9885 9884 9882 9881 9880 9877 9874 9874 9872 9869 9866 9863 9861 9859 9857 9855 9853 9851 9849 9846 9843 9840 9839 9839 9838 9839 9838 9837 9836 9835 9834 9833 9833 9834 9835 9836 9837 9838 9839 9839 9840 9841
9901 9899 9897 9895 9891 9887 9884 9882 9880 9878 9873 9871 9868 9866 9865 9865 9865 9862 9860 9857 9856 9853 9851 9849 9847 9845 9843 9841 9840 9839 9837 9835 9834 9831 9829 9827 9826 9824 9823 9823 9822 9822 9821 9821 9821 9820 9821 9822 9824 9826 9827 9827 9828 9830